Theta_e
337 339 344 337 313 310 305 307 317 314 314 317 320 321 321 324 325 322 348 351 346 345 357 359 362 360 357 356 355 352 352 352 352 350 350 351 354 355 356 356 356 356 356 356 356 356 355 355 354
332 337 337 323 307 302 304 312 312 313 316 319 321 323 323 326 336 340 343 348 350 345 359 357 361 362 360 359 358 356 354 356 353 351 350 350 352 354 355 355 355 355 356 356 355 355 355 354 353
332 334 322 313 307 301 303 310 312 313 317 318 318 323 328 331 337 339 347 348 346 345 359 357 361 362 361 360 359 358 358 357 355 352 350 349 351 352 354 354 355 354 355 355 354 354 353 352 351
326 326 319 307 304 307 307 313 311 311 316 318 319 316 331 339 338 345 350 347 343 345 357 360 362 361 360 360 359 357 358 357 356 353 351 349 350 351 352 354 354 354 354 354 354 353 351 350 350
329 323 309 305 305 308 312 313 310 308 310 312 317 315 322 336 342 347 349 345 340 344 356 359 361 360 359 360 358 357 358 356 357 355 352 350 349 352 353 354 354 353 353 353 352 352 352 353 351
316 314 302 301 304 306 310 311 309 308 309 310 311 313 322 336 339 345 349 346 340 344 348 356 359 360 359 359 358 357 358 357 356 355 354 352 349 352 353 353 352 352 352 352 351 351 351 350 349
312 307 302 302 302 303 306 311 308 308 309 309 313 309 320 329 339 345 348 350 347 345 346 354 356 355 357 358 358 356 357 357 356 355 354 351 348 351 352 352 352 351 351 351 351 350 350 350 349
315 309 302 303 301 302 308 308 310 309 308 315 314 308 311 323 334 342 346 347 352 346 345 350 355 354 352 351 355 354 354 355 355 354 352 351 348 350 350 351 351 350 350 350 349 349 349 348 347
317 305 301 303 303 304 309 306 312 313 310 311 313 313 317 320 328 335 337 342 345 349 346 350 351 352 353 353 353 355 351 351 353 351 351 347 343 344 344 347 351 349 349 349 349 348 347 345 344
310 305 304 307 307 305 307 307 309 308 309 310 312 315 317 319 321 322 328 330 340 340 345 346 349 350 351 351 353 353 353 343 347 346 345 344 343 341 341 346 349 349 347 347 347 346 346 345 338
310 304 307 307 308 309 307 307 310 308 307 311 310 313 315 316 317 316 318 321 327 337 345 346 346 348 349 349 346 342 343 341 337 340 342 343 344 340 342 343 343 346 345 343 343 342 341 338 337
304 308 307 309 309 309 308 311 309 310 311 315 314 315 315 315 316 317 317 319 320 322 333 346 346 346 347 349 347 342 339 339 334 337 337 334 339 339 337 340 341 345 342 338 336 333 333 332 332
306 307 309 310 310 310 311 309 309 310 314 315 315 315 315 316 316 318 319 320 321 321 323 334 343 344 343 345 348 346 340 338 341 337 334 335 328 331 336 337 340 340 338 336 332 330 329 329 329
310 309 309 310 310 311 308 308 310 311 314 314 314 314 315 315 316 317 318 318 320 321 322 325 328 340 344 341 342 342 344 342 339 338 333 334 327 334 336 335 338 337 335 333 329 328 327 329 328
309 305 307 307 308 308 309 304 306 312 313 312 313 314 315 316 317 317 318 318 319 320 322 323 326 328 339 341 340 342 342 342 342 336 331 329 332 337 336 335 338 337 334 329 327 326 327 327 326
305 305 299 305 306 307 307 298 307 312 311 310 312 313 314 315 316 318 319 319 320 320 321 322 324 325 330 339 338 339 340 341 340 340 336 332 337 339 335 333 335 336 330 329 326 326 326 325 325
303 296 299 300 306 304 304 300 306 311 310 309 311 312 313 314 316 318 319 319 320 321 321 322 323 324 329 335 338 338 338 339 341 340 339 338 338 339 335 332 335 333 328 327 325 325 325 324 324
298 298 299 297 302 303 301 301 305 308 309 309 310 311 312 313 314 317 319 320 321 321 321 322 324 324 330 335 336 336 335 336 339 342 340 338 338 338 334 333 333 329 326 328 326 323 324 324 323
302 300 298 301 303 300 299 300 304 308 309 309 310 311 312 312 316 317 318 319 319 320 320 321 323 324 330 333 331 332 330 333 338 340 336 335 335 335 330 330 329 326 325 327 326 324 322 322 322
301 298 298 301 302 300 300 300 304 306 307 309 309 310 311 313 315 316 318 318 320 319 320 321 323 325 331 333 332 333 331 335 335 333 333 333 331 330 327 326 327 326 327 325 325 325 322 321 321
299 298 298 297 300 301 299 299 302 306 308 309 310 311 312 313 312 314 316 319 321 323 324 325 326 328 332 332 333 330 331 330 328 329 329 328 329 325 325 327 326 326 326 325 326 326 324 319 320
296 302 300 298 295 292 302 291 301 304 305 306 308 309 312 312 313 315 316 317 319 322 327 328 328 329 333 332 330 329 327 325 324 323 326 324 323 323 323 324 322 325 326 326 325 326 325 323 318
299 300 298 298 296 296 297 294 299 304 301 304 306 309 312 313 313 314 316 318 319 322 325 328 329 330 331 332 331 331 325 320 320 321 321 321 320 318 319 321 321 323 325 325 326 326 324 324 321
303 299 299 299 297 290 296 296 297 300 301 304 307 310 312 312 314 316 317 319 319 321 323 325 324 326 331 334 332 329 322 320 317 318 318 318 317 315 315 315 318 321 322 323 326 327 326 324 323
300 297 292 290 291 290 298 295 297 303 304 305 307 310 312 313 312 314 316 317 319 319 321 322 323 321 324 327 328 326 323 321 319 319 317 316 315 314 314 314 314 315 316 322 325 326 327 326 324
298 297 292 284 289 292 295 291 298 305 307 308 310 312 312 311 312 313 315 316 318 318 319 320 320 319 320 319 319 321 321 319 317 317 316 316 316 316 315 314 313 312 313 315 318 322 325 326 325
298 294 299 293 294 290 294 297 302 304 305 307 308 310 311 311 312 312 314 315 315 316 316 318 318 318 318 318 317 316 317 318 315 316 317 314 314 313 314 313 311 311 312 312 313 316 321 321 322
299 302 292 293 287 286 293 294 296 299 302 304 307 308 311 311 312 313 313 314 315 314 316 317 317 316 316 317 318 317 315 316 315 314 314 314 313 312 311 310 310 310 310 310 310 311 313 315 315
296 296 296 297 294 290 289 293 301 302 304 303 307 310 311 312 310 310 312 313 314 314 314 315 315 315 314 315 317 316 315 314 313 312 312 312 312 311 310 310 309 309 309 309 308 308 307 307 307
300 297 297 292 291 294 292 293 302 304 304 305 308 310 312 313 312 310 310 310 312 311 314 312 314 313 313 315 314 314 313 312 311 312 312 312 310 311 310 310 309 309 309 309 308 308 308 307 306
Wind_Speed
13 11 4 6 6 6 8 4 4 3 3 6 5 5 9 6 11 6 4 3 1 11 16 18 17 17 17 15 14 13 14 14 14 12 11 10 10 11 11 11 11 13 13 13 14 16 17 19 18
8 6 4 4 7 8 6 4 8 1 3 6 3 5 8 10 10 7 4 4 5 12 17 16 16 17 16 15 14 14 14 14 14 12 11 10 9 10 10 12 11 12 13 14 14 15 17 18 17
11 7 7 5 7 10 4 4 2 2 2 4 5 2 7 6 10 4 8 3 9 13 17 13 17 15 15 15 14 14 14 15 14 14 11 11 10 9 10 12 12 13 13 14 14 15 16 17 17
5 4 5 9 11 2 5 5 1 6 5 1 4 6 6 6 4 7 5 1 12 13 17 17 16 14 14 14 14 14 12 15 14 14 13 11 10 10 9 12 13 14 14 14 14 15 16 17 16
6 5 9 9 10 2 4 3 3 5 3 4 5 5 1 9 4 8 5 1 9 11 17 15 15 16 16 15 15 15 14 15 13 14 12 12 12 10 10 13 13 14 14 14 14 14 15 17 15
5 5 8 10 10 3 4 3 4 4 3 5 8 5 4 6 7 6 5 3 5 9 10 15 15 15 16 17 16 15 14 16 15 14 12 11 12 11 12 13 13 13 14 15 15 15 17 16 14
9 6 12 8 6 5 7 2 8 3 4 7 4 8 6 9 6 5 4 3 4 6 10 14 13 13 14 16 16 16 16 16 15 14 14 12 11 11 11 13 14 13 14 15 15 16 16 17 14
6 5 8 6 7 9 4 3 3 6 5 7 4 5 2 10 6 5 3 3 7 6 8 4 10 12 13 13 15 16 14 14 15 13 13 11 9 10 10 10 13 13 14 15 15 17 18 18 15
3 6 8 6 6 2 5 6 6 1 8 5 3 7 9 5 3 2 3 5 4 8 4 2 7 10 11 11 13 14 14 11 14 12 10 11 7 10 10 9 13 14 14 15 16 17 18 16 13
7 7 6 6 4 4 2 6 6 5 8 8 6 4 2 5 7 7 6 6 6 4 9 8 9 8 8 7 7 11 10 3 1 6 10 8 10 10 9 12 14 14 15 15 15 15 16 13 7
5 8 4 4 6 4 6 7 8 8 9 8 4 3 1 3 2 4 5 4 6 5 8 7 8 7 8 6 3 2 2 7 3 5 2 5 4 4 7 7 8 8 13 8 9 8 8 10 9
8 9 6 2 1 4 9 9 8 11 11 3 2 2 3 5 3 3 3 6 6 5 7 8 7 5 8 5 6 8 4 6 6 5 8 3 5 3 2 6 9 8 7 9 9 5 4 4 4
12 10 6 7 6 9 10 12 13 13 10 6 5 6 6 6 5 5 5 6 6 8 3 7 8 8 5 7 5 6 7 5 10 9 11 7 5 12 4 3 4 7 9 6 6 5 6 7 7
5 8 10 8 10 11 11 13 13 12 12 10 9 10 8 7 6 6 8 9 9 8 6 5 7 7 9 7 9 7 8 10 8 8 9 14 14 12 7 4 3 1 5 5 5 6 6 6 7
10 12 12 13 13 12 6 15 17 16 9 13 13 11 8 8 7 10 9 10 12 11 9 7 6 8 9 9 9 7 6 8 11 9 9 10 11 14 11 6 7 3 7 9 6 6 6 5 7
10 12 11 4 5 7 7 15 10 7 9 14 14 12 9 9 11 11 11 12 13 13 13 11 8 8 11 10 7 7 6 6 8 10 10 12 15 16 11 8 9 8 6 8 8 8 8 8 8
11 12 8 6 9 8 10 11 6 4 9 13 14 12 10 10 12 14 12 11 15 15 15 13 10 11 11 12 6 7 10 8 7 7 8 12 15 15 10 9 8 9 5 8 8 7 8 8 8
8 10 9 8 6 9 14 17 15 14 10 13 13 10 11 11 14 16 16 14 14 14 15 13 11 10 11 8 6 5 6 8 5 6 9 13 12 15 11 7 11 7 7 7 7 9 9 8 8
13 13 15 13 6 8 16 16 14 10 11 11 11 9 9 12 14 12 14 15 13 12 11 12 13 12 9 7 8 6 6 6 3 6 8 11 12 15 11 8 10 5 7 9 10 9 10 7 8
12 16 16 13 4 8 16 18 15 13 9 8 4 6 9 11 12 14 16 9 9 8 7 11 12 12 10 8 6 2 2 1 4 3 5 10 12 12 12 11 10 10 7 8 10 9 8 6 8
15 16 16 15 11 13 17 23 15 6 6 5 6 2 5 8 9 11 12 12 11 10 6 8 9 10 10 10 3 6 5 3 1 2 3 8 10 8 10 11 9 12 8 7 9 9 10 8 7
14 13 11 12 9 9 2 8 5 12 10 9 4 2 5 5 6 9 10 10 9 8 2 1 5 9 10 8 6 8 5 4 1 2 4 8 8 6 7 9 7 9 8 8 8 8 8 8 8
13 0 4 8 10 14 16 8 8 10 10 11 4 2 4 4 6 9 8 8 8 6 6 5 4 4 7 6 5 6 6 4 2 4 8 11 8 6 6 8 9 9 7 9 11 11 11 8 6
5 5 6 8 8 10 18 13 6 10 10 9 5 6 5 3 5 8 7 6 8 7 6 7 7 6 1 7 8 9 8 7 5 1 8 8 6 5 4 7 4 7 6 5 8 10 11 9 8
10 7 3 6 6 4 4 6 13 9 6 6 8 8 6 5 3 6 8 7 10 9 9 7 9 9 8 5 8 6 8 8 4 5 6 9 7 6 5 6 3 4 3 2 3 7 8 9 7
17 15 5 5 4 2 2 8 2 7 9 9 7 7 7 4 4 4 6 9 10 10 10 10 10 11 10 8 9 7 7 7 4 7 5 5 6 6 9 7 4 4 4 2 2 3 3 5 6
11 14 12 13 11 7 8 11 6 9 11 10 10 10 8 6 5 4 5 6 8 9 10 9 10 10 10 9 7 7 7 7 7 7 7 5 7 6 8 8 7 5 5 5 1 1 2 4 5
10 10 8 7 5 7 9 10 6 15 15 13 12 12 11 7 5 4 4 5 7 7 7 9 10 10 9 8 7 7 8 7 7 7 9 9 8 9 9 10 9 7 6 5 4 5 5 3 5
11 13 8 5 9 5 6 3 7 14 16 16 14 13 12 11 7 4 3 4 6 7 7 7 9 9 9 8 8 9 8 9 9 8 9 8 9 8 8 8 9 8 6 6 7 7 8 8 7
19 18 18 8 9 8 9 3 4 11 12 13 14 13 12 12 10 6 4 4 5 5 7 7 7 8 8 7 9 10 11 11 11 11 10 9 9 9 10 10 10 7 6 6 9 9 8 7 6
Wind_Direction
273 243 266 253 254 235 247 175 358 196 212 23 304 300 345 333 5 25 81 91 345 165 138 166 158 156 157 158 158 156 155 151 144 142 144 141 122 108 100 94 94 94 92 94 95 92 92 87 83
280 265 251 281 253 231 202 138 200 69 332 298 276 281 226 98 41 97 161 18 194 182 142 167 164 163 161 160 160 161 161 157 146 139 142 142 133 116 108 102 97 96 95 93 95 94 92 90 88
255 250 253 230 246 256 314 158 89 258 211 305 287 255 3 40 53 27 28 345 179 180 143 164 166 169 165 163 163 166 172 159 150 142 143 147 146 129 115 112 107 101 98 97 99 96 94 95 92
213 212 246 246 248 210 302 143 1 254 183 237 327 250 130 58 10 7 23 84 166 172 144 145 165 169 166 167 165 168 172 162 156 147 145 147 147 138 129 118 113 106 104 100 100 101 101 102 99
230 262 250 237 253 274 230 10 272 261 299 274 329 277 120 67 17 27 31 169 176 177 141 156 166 174 176 176 173 175 173 170 158 148 148 149 148 139 133 125 117 113 108 109 105 105 106 103 101
223 286 249 242 231 208 265 180 242 272 295 284 266 301 95 83 26 44 43 103 193 184 185 152 174 182 183 183 182 179 177 170 163 154 153 151 147 140 129 129 121 117 114 112 109 107 105 104 97
268 251 267 290 271 240 241 118 250 283 280 276 344 275 91 89 30 10 46 38 273 231 198 151 181 186 193 194 191 187 183 170 169 161 153 154 150 146 136 133 128 124 117 113 113 113 107 102 96
283 268 267 245 249 254 157 218 337 259 281 15 276 268 305 51 17 351 47 1 359 248 205 139 165 196 196 201 206 204 190 176 169 168 154 147 148 144 145 135 138 134 123 118 113 114 110 105 98
271 256 258 249 246 250 140 238 159 303 272 193 263 289 26 355 275 255 262 128 333 321 299 222 210 211 204 214 195 200 191 188 172 159 157 153 154 175 158 153 142 134 127 118 113 111 114 108 101
246 258 305 9 299 256 189 265 275 247 235 241 224 227 15 321 288 266 211 282 168 251 286 274 209 222 223 220 242 202 178 135 196 149 166 196 166 182 193 140 141 140 133 123 119 123 140 142 123
202 259 27 255 265 264 272 251 240 260 259 265 287 332 320 301 290 291 289 292 278 261 189 265 274 225 210 197 138 78 116 147 112 29 253 298 218 145 168 140 154 142 143 129 137 149 190 158 155
262 233 257 298 197 250 253 266 253 242 262 27 201 269 255 268 268 284 310 300 302 299 258 202 234 238 239 213 189 140 157 145 156 157 99 360 310 252 215 173 156 164 154 157 151 177 117 123 134
245 265 241 240 243 256 269 262 267 263 244 214 205 222 240 256 275 286 297 283 281 272 289 276 213 225 219 212 218 165 147 159 184 177 164 182 50 314 311 273 156 189 145 177 141 141 154 160 151
346 282 264 245 252 258 257 259 244 249 235 219 217 231 239 255 270 289 267 275 281 274 247 249 253 231 219 221 224 206 181 176 179 200 186 170 158 214 232 232 162 214 104 99 143 146 146 122 121
269 270 264 243 243 242 268 261 246 255 199 228 225 240 239 258 267 268 285 280 284 283 278 251 248 253 218 221 212 216 220 198 177 198 210 205 175 181 198 187 178 171 135 140 144 124 130 112 119
253 255 268 144 197 217 221 278 294 178 219 239 242 243 234 248 267 274 282 278 276 276 267 256 224 235 234 208 206 212 211 211 215 192 199 199 189 183 188 190 162 168 159 163 155 154 145 143 137
218 271 231 253 187 255 218 284 317 197 238 251 256 255 269 282 277 277 283 291 284 281 277 264 242 233 223 217 165 179 211 235 205 213 197 202 188 177 182 184 159 168 128 155 149 153 147 149 135
294 232 258 260 192 228 261 268 270 263 227 260 261 273 277 298 308 322 307 289 263 262 271 263 253 231 217 202 196 201 198 231 212 203 206 201 196 175 184 151 154 147 144 162 159 152 152 148 142
299 285 280 283 280 270 268 268 276 266 242 246 262 273 311 321 328 337 328 308 283 269 252 256 244 222 215 157 205 189 194 231 199 210 195 188 172 165 149 147 152 130 151 166 158 158 150 144 151
256 266 268 275 314 276 277 278 278 260 260 260 277 297 326 336 353 349 318 301 287 277 236 242 228 214 204 161 221 163 218 204 134 140 138 141 146 143 154 148 156 156 159 174 160 158 142 150 148
244 257 271 286 309 278 267 279 237 205 218 184 228 305 338 9 353 346 355 344 355 348 305 250 214 214 174 156 179 79 71 79 80 146 147 141 137 133 137 166 150 162 156 170 148 159 161 155 176
260 255 255 278 285 283 115 290 248 171 199 200 220 40 55 22 358 14 8 1 352 347 310 293 204 196 162 160 133 154 183 188 162 102 162 124 115 108 146 155 153 161 160 166 159 162 164 165 186
262 153 244 265 274 284 271 246 239 161 199 199 175 130 98 47 26 27 13 21 9 9 20 40 144 144 156 185 183 159 140 102 116 156 117 111 106 93 71 155 169 168 165 169 179 176 177 177 174
107 211 237 258 263 260 250 209 252 178 218 131 166 159 114 89 50 35 34 38 40 31 52 72 67 60 140 166 189 138 138 135 110 218 120 114 114 109 84 77 117 173 168 166 176 182 193 182 193
199 215 248 233 198 262 52 232 255 112 131 150 158 158 130 101 78 46 25 40 47 36 33 51 74 75 57 60 99 134 133 127 131 111 95 116 117 126 134 81 68 60 61 97 155 192 198 203 212
206 210 196 234 246 265 154 236 239 124 140 138 144 149 138 132 112 65 47 33 45 42 37 45 48 60 72 58 73 85 107 103 116 105 104 98 115 128 143 148 108 83 94 113 159 198 235 223 223
180 223 248 277 262 273 217 233 168 172 167 166 165 174 160 157 142 110 79 69 57 50 43 40 55 55 64 90 85 74 77 93 104 106 107 102 105 113 120 124 114 89 72 71 114 354 173 226 217
238 177 177 217 235 245 213 240 226 187 191 178 181 186 164 160 160 127 99 74 75 66 59 58 52 56 53 58 79 90 91 93 98 102 107 113 105 112 114 111 106 101 90 89 93 83 49 84 49
180 201 221 230 230 287 291 191 5 175 189 179 184 182 172 164 169 154 106 84 86 83 77 70 68 63 59 57 65 87 93 89 85 81 76 80 99 97 101 107 112 113 118 115 94 89 96 95 96
205 213 214 213 217 233 290 295 193 146 168 168 171 170 171 156 144 151 143 110 97 95 96 86 86 80 72 73 86 78 82 83 78 83 89 94 94 96 100 107 103 101 110 117 120 123 122 138 133